Regional Weather Roundup
Issued by NWS

Home | Current Version | Previous Version | Text Only | Print | Product List | Glossary Off
Versions: 1 2 3 4 5 6 7 8 9 10 11 12 13 14 15 16 17 18 19 20 21 22 23 24 25 26 27

000
ASUS45 KBOU 291307
RWRCO

WEATHER ROUNDUP FOR COLORADO
NATIONAL WEATHER SERVICE DENVER/BOULDER CO
700 AM MDT WED MAR 29 2017

NOTE: "FAIR" INDICATES FEW OR NO CLOUDS BELOW 12000 FEET WITH NO
SIGNIFICANT WEATHER AND/OR OBSTRUCTIONS TO VISIBILITY.

COZ001>005-013-030-031-291400-
...NORTHWEST COLORADO...

CITY           SKY/WX    TMP DP  RH WIND       PRES   REMARKS
CRAIG          FAIR      30  25  81 SW9       30.18R WCI  22
HAYDEN         FAIR      27  21  80 W3        30.16R
MEEKER         FAIR      29  27  92 S3        30.18R
MOUNT WERNER   NOT AVBL
STEAMBOAT SPGS FAIR      28  26  91 NE3       30.15R
WALDEN         NOT AVBL
$$

COZ006>008-011-291400-
...WEST CENTRAL VALLEYS...

CITY           SKY/WX    TMP DP  RH WIND       PRES   REMARKS
GRAND JUNCTION FAIR      40  31  70 NW13      30.12R
MONTROSE       FAIR      31  29  92 SE7       30.13R WCI  24
EAGLE          MOCLDY    36  30  80 CALM      30.13R
RIFLE          CLOUDY    35  31  85 VRB6      30.14R WCI  30
DELTA          FAIR      35  31  87 NE7       30.09R WCI  29
NUCLA          FAIR      41  27  56 NW14      30.13R
$$

COZ017>023-064>068-291400-
...SOUTHWEST COLORADO...

CITY           SKY/WX    TMP DP  RH WIND       PRES   REMARKS
DURANGO        FAIR      31  28  89 E5        29.97R WCI  26
CORTEZ         FAIR      40  29  64 VRB5      30.02R
PAGOSA SPRINGS FAIR      33  32  97 CALM      29.99R
TELLURIDE      LGT SNOW  29  28  92 W3          N/A
WOLF CREEK PAS CLOUDY    19  19 100 N16G23    30.07R WCI   5
$$

COZ009-010-012-014-032>034-037-058>063-291400-
...CENTRAL COLORADO...

CITY           SKY/WX    TMP DP  RH WIND       PRES   REMARKS
ASPEN          CLOUDY    33  28  81 NW3       30.09R
BUENA VISTA    CLOUDY    35  26  68 N7        30.05R WCI  29
COPPER MTN     CLOUDY    23  18  80 MISG      30.11R
BERTHOUD PASS  HAZE      14   5  67 NW7       30.11R VSB<1/4 WCI   4
COTTONWOOD PAS CLOUDY    32  27  80 CALM      30.07R
GUNNISON       FAIR      32  28  85 SW3       30.07R
KREMMLING      FAIR      37  28  70 NW10G17   30.12R
LEADVILLE      CLOUDY    25  20  81 N12       30.08R WCI  14
MONARCH PASS   CLOUDY    21  19  93 MISG      30.17R
SALIDA         CLOUDY    35  33  93 CALM      30.13R
SUNLIGHT       CLOUDY   N/A N/A N/A NE7       30.18R
WILKERSON PASS LGT SNOW N/A N/A N/A N9G21     30.09R
$$

COZ069>075-291400-
...SAN LUIS VALLEY/SANGRE DE CRISTO MOUNTAINS...

CITY           SKY/WX    TMP DP  RH WIND       PRES   REMARKS
ALAMOSA        CLOUDY    35  30  82 N8        29.99R WCI  29
LA VETA PASS   NOT AVBL
SAGUACHE       CLOUDY    36  23  60 N9        30.02R
$$

COZ035-036-038>040-291400-
...NORTHERN COLORADO FRONT RANGE...

CITY           SKY/WX    TMP DP  RH WIND       PRES   REMARKS
DENVER INTL AP LGT SNOW  36  34  92 N9        30.09R FOG
DMNS CITY PARK   N/A     38  36  93 N5G10     30.11R
AURORA         LGT RAIN  35  35 100 N10       30.10R WCI  27
FRONT RANGE AP LGT RAIN  37  37 100 NW14      30.10R
ERIE MUNI ARPT CLOUDY    38  36  93 CALM      30.11R
BOULDER MUN AP CLOUDY    37  36  93 CALM      30.10R
CENTENNIAL     DRIZZLE   34  32  92 N14       30.09R WCI  25
BROOMFIELD     DRIZZLE   37  36  93 N6        30.10R
FORT COLLINS   FAIR      39  36  89 NE6       30.11R
LONGMONT       CLOUDY    40  37  88 CALM      30.13R
$$

COZ041-046-047-076>085-087-088-291400-
...PIKES PEAK/PALMER DIVIDE AND SOUTHERN FOOTHILLS...

CITY           SKY/WX    TMP DP  RH WIND       PRES   REMARKS
COLO. SPRINGS  CLOUDY    36  30  79 N13G23    30.04R
A. F. ACADEMY  FLURRIES  33  32  98 N16G23    30.03S WCI  22
SCHRIEVER AFB  MOCLDY    34  31  87 N18G25    30.03R WCI  23
ELLICOTT       CLOUDY   N/A N/A N/A N25G32    30.00R
FALCON         CLOUDY    32  30  93 N17G24    30.04R WCI  21
FORT CARSON    CLOUDY    38  30  71 N21G32    30.02R
LIMON          MIX PCPN  33  33 100 N17       30.03R FOG     WCI  22
MONUMENT HILL  LGT SNOW  30  30 100 N16G22    30.07R VSB 1   WCI  19
TRINIDAD       LGT SNOW  33  31  92 N14       30.01R FOG     WCI  23
$$

COZ042>045-048>051-090-091-291400-
...NORTHEAST COLORADO...

CITY           SKY/WX    TMP DP  RH WIND       PRES   REMARKS
GREELEY ARPT   CLOUDY    38  36  92 N3        30.12R
AKRON          LGT RAIN  35  34  96 N13       30.06R VSB 3/4 WCI  26
BURLINGTON     LGT RAIN  39  38  96 N16       29.98R FOG
WRAY           NOT AVBL
STERLING       CLOUDY    37  36  93 N7        30.07S
HOLYOKE        CLOUDY    41  37  87 N15G21    30.05S
FORT MORGAN    CLOUDY    37  35  94 N9        30.09S
$$

COZ086-089-092>099-291400-
...SOUTHEAST COLORADO...

CITY           SKY/WX    TMP DP  RH WIND       PRES   REMARKS
PUEBLO         CLOUDY    40  35  83 CALM      30.03R
LA JUNTA       CLOUDY    40  36  86 N14       30.01R
LAMAR          LGT RAIN  40  36  86 N17       29.95R
SPRINGFIELD      N/A     35  35 100 N23G36    29.90R WCI  23
$$




USA.gov is the U.S. government's official web portal to all federal, state and local government web resources and services.